TimePDT,TemperatureF,Dew PointF,Humidity,Sea Level PressureIn,VisibilityMPH,Wind Direction,Wind SpeedMPH,Gust SpeedMPH,PrecipitationIn,Events,Conditions,WindDirDegrees,DateUTC
12:53 AM,43.0,25.0,49,29.64,-9999.0,SW,8.1,-,N/A,,Unknown,230,2012-10-21 07:53:00
1:53 AM,41.0,24.1,51,29.66,-9999.0,South,10.4,-,N/A,,Unknown,180,2012-10-21 08:53:00
2:53 AM,37.0,21.9,54,29.67,-9999.0,South,6.9,-,N/A,,Unknown,180,2012-10-21 09:53:00
3:53 AM,39.0,21.9,50,29.67,-9999.0,Calm,Calm,-,N/A,,Unknown,0,2012-10-21 10:53:00
4:53 AM,36.0,21.9,57,29.70,-9999.0,Calm,Calm,-,N/A,,Unknown,0,2012-10-21 11:53:00
5:53 AM,33.1,21.0,61,29.73,-9999.0,Calm,Calm,-,N/A,,Unknown,0,2012-10-21 12:53:00
6:53 AM,34.0,21.0,59,29.75,-9999.0,South,6.9,-,N/A,,Unknown,180,2012-10-21 13:53:00
7:53 AM,39.9,21.9,49,29.75,-9999.0,South,5.8,-,N/A,,Unknown,180,2012-10-21 14:53:00
8:53 AM,51.1,24.1,35,29.73,-9999.0,Calm,Calm,-,N/A,,Unknown,0,2012-10-21 15:53:00
9:53 AM,55.9,21.9,27,29.74,-9999.0,ESE,3.5,-,N/A,,Unknown,110,2012-10-21 16:53:00
10:53 AM,57.9,23.0,26,29.73,-9999.0,Variable,3.5,-,N/A,,Unknown,0,2012-10-21 17:53:00
11:53 AM,63.0,18.0,18,29.70,-9999.0,West,12.7,-,N/A,,Unknown,270,2012-10-21 18:53:00
12:53 PM,62.1,17.1,18,29.68,-9999.0,Variable,4.6,-,N/A,,Unknown,0,2012-10-21 19:53:00
1:53 PM,63.0,19.9,19,29.68,-9999.0,WSW,11.5,-,N/A,,Unknown,250,2012-10-21 20:53:00
2:53 PM,63.0,19.0,18,29.67,-9999.0,West,12.7,-,N/A,,Unknown,260,2012-10-21 21:53:00
3:53 PM,63.0,19.0,18,29.65,-9999.0,West,6.9,-,N/A,,Unknown,260,2012-10-21 22:53:00
4:53 PM,62.1,19.0,19,29.67,-9999.0,WNW,9.2,-,N/A,,Unknown,290,2012-10-21 23:53:00
5:53 PM,60.1,19.0,20,29.66,-9999.0,Calm,Calm,-,N/A,,Unknown,0,2012-10-22 00:53:00
6:53 PM,50.0,19.9,31,29.71,-9999.0,NNW,5.8,-,N/A,,Unknown,340,2012-10-22 01:53:00
7:53 PM,48.9,21.0,33,29.69,-9999.0,SSW,3.5,-,N/A,,Unknown,200,2012-10-22 02:53:00
8:53 PM,46.0,21.0,37,29.66,-9999.0,Calm,Calm,-,N/A,,Unknown,0,2012-10-22 03:53:00
9:53 PM,44.1,19.9,38,29.67,-9999.0,Calm,Calm,-,N/A,,Unknown,0,2012-10-22 04:53:00
10:53 PM,52.0,26.1,37,29.66,-9999.0,WNW,15.0,20.7,N/A,,Unknown,290,2012-10-22 05:53:00
11:53 PM,48.0,33.1,56,29.65,-9999.0,East,6.9,-,N/A,,Unknown,80,2012-10-22 06:53:00